Location: La Trinit�
(48.1620°N, 3.4512°W)
Time: 09:44:37
(UTC+00:00)

Cosmos 1898 Rocket - Pass Details

Date: 08 May 2021
Orbit: 753 x 784 km, 74.0° (Epoch: 12 June)

Event Time Altitude Azimuth Distance (km) Brightness Sun altitude
Exits shadow 22:57:41 50° 129° (SE) 981 3.7 -22.5°
Maximum altitude 22:58:14 53° 106° (ESE) 954 3.7 -22.5°
Drops below altitude 10° 23:03:25 10° 31° (NNE) 2,347 6.5 -22.8°
Sets 23:05:52 0° 27° (NNE) 3,282 7.5 -22.9°
